{"data":{"norad_id":62275,"intl_designator":"2024-237J","name":"STARLINK-11495 [DTC]","alt_names":[],"object_type":"PAYLOAD","status":"ACTIVE","operator":null,"country":"US","launch_date":"2024-12-08","launch_site_code":"AFETR","launch_vehicle":null,"mission":null,"orbit_class":"UNKNOWN","rcs_meters":null,"size_class":null,"mass_kg":null,"dimensions":null,"purposes":["comms"],"wikipedia_slug":null,"has_3d_model":false,"image_url":null,"decayed_at":null,"tle_current":{"epoch":"2026-05-25T04:05:54.109824Z","epoch_age_seconds":50574,"freshness":"FRESH","line1":"1 62275U 24237J   26145.17076516  .00254648  00000+0  19225-2 0  9990","line2":"2 62275  43.0013 316.2400 0001886  28.6444 331.4527 15.70906099 85028","mean_motion":15.70906099,"eccentricity":0.0001886,"inclination_deg":43.0013,"raan_deg":316.24,"arg_perigee_deg":28.6444,"mean_anomaly_deg":331.4527,"bstar":0.0019225,"rev_number":8502,"period_min":91.666841252744,"perigee_km":355.03602890327,"apogee_km":357.57626085752,"semimajor_km":6734.4431448804,"source":"CELESTRAK","updated_at":"2026-05-25T13:38:19.643483Z"}}}